Home > Weather > Nea Smyrni > Past weeks

Flag for Greece Past Weather in Nea Smyrni, Greece — Yesterday and Last 2 Weeks

Now
72 °F

Clear.


Feels Like: 76 °F
Forecast: 72 / 92 °F
Wind: 2 mph from North

Location: Eleftherios Venizelos International Airport

Current Time: Aug 30, 2016 at 8:13:59 AM

Latest Report: Aug 30, 2016 at 7:50 AM


Visibility: 10 mi

Pressure: 29.95 "Hg

Humidity: 61%

Dew Point: 57 °F

Location of Nea SmyrniLocation

Past Weather in Nea Smyrni — Graph

°F

Nea Smyrni Temperature Yesterday

Maximum temperature yesterday: 86 °F (at 11:50 AM)
Minimum temperature yesterday: 72 °F (at 4:50 AM)
Average temperature yesterday: 80 °F

High & Low Weather Summary for the Past Weeks

 TemperatureHumidityPressure
High95 °F (Aug 18, 1:50 PM)78% (Aug 30, 5:20 AM)30.07 "Hg (Aug 30, 5:20 AM)
Low61 °F (Aug 18, 6:20 AM)19% (Aug 18, 1:50 PM)29.77 "Hg (Aug 18, 4:20 PM)
Average80 °F45%29.91 "Hg
* Reported Aug 15 6:20 AM — Aug 30 6:50 AM, Nea Smyrni, Weather by CustomWeather, © 2016

Note: Actual official high and low records may vary slightly from our data, if they occured in-between our weather recording intervals... More about our weather records

Advertising

Nea Smyrni Weather History for the Previous 24 Hours

Scroll right to see more
 ConditionsComfort  
Time TempWeatherWind HumidityBarometerVisibility
6:50 AM
Tue, Aug 30
68 °FClear.1 mph69%29.92 "Hg10 mi
6:20 AM63 °FClear.5 mph77%29.92 "Hg10 mi
5:50 AM64 °FClear.5 mph78%29.92 "Hg10 mi
5:20 AM64 °FClear.3 mph78%29.92 "Hg10 mi
4:50 AM66 °FPassing clouds.2 mph73%29.92 "HgN/A
4:20 AM66 °FPassing clouds.2 mph73%29.92 "HgN/A
3:50 AM70 °FPassing clouds.1 mph69%29.92 "HgN/A
3:20 AM70 °FPassing clouds.2 mph73%29.92 "HgN/A
2:50 AM72 °FPassing clouds.1 mph61%29.95 "HgN/A
2:20 AM72 °FPassing clouds.2 mph61%29.92 "HgN/A
1:50 AM73 °FPassing clouds.5 mph61%29.95 "HgN/A
1:20 AM73 °FPassing clouds.3 mph61%29.95 "HgN/A
12:50 AM73 °FPassing clouds.1 mph65%29.95 "HgN/A
12:20 AM73 °FPassing clouds.2 mph65%29.95 "HgN/A
11:50 PM
Mon, Aug 29
75 °FPassing clouds.2 mph65%29.95 "HgN/A
11:20 PM75 °FPassing clouds.5 mph74%29.95 "HgN/A
10:50 PM75 °FPassing clouds.2 mph74%29.95 "HgN/A
10:20 PM77 °FPassing clouds.3 mph69%29.95 "HgN/A
9:50 PM77 °FPassing clouds.5 mph65%29.95 "HgN/A
9:20 PM77 °FPassing clouds.2 mph61%29.95 "HgN/A
8:50 PM77 °FPassing clouds.2 mph54%29.95 "HgN/A
8:20 PM79 °FPassing clouds.1 mph54%29.92 "HgN/A
7:50 PM81 °FPassing clouds.1 mph48%29.92 "HgN/A
7:20 PM82 °FSunny.5 mph42%29.92 "Hg10 mi
6:50 PM84 °FPassing clouds.8 mph40%29.92 "HgN/A
6:20 PM84 °FPassing clouds.6 mph37%29.92 "HgN/A
5:50 PM84 °FPassing clouds.6 mph37%29.92 "HgN/A
5:20 PM84 °FPassing clouds.9 mph40%29.92 "HgN/A
4:50 PM86 °FPassing clouds.7 mph38%29.92 "HgN/A
4:20 PM86 °FPassing clouds.7 mph38%29.92 "HgN/A
3:50 PM86 °FPassing clouds.8 mph38%29.92 "HgN/A
3:20 PM86 °FPassing clouds.12 mph38%29.95 "HgN/A
2:50 PM86 °FPassing clouds.13 mph38%29.95 "HgN/A
2:20 PM84 °FPassing clouds.14 mph43%29.95 "HgN/A
1:50 PM86 °FPassing clouds.15 mph43%29.95 "HgN/A
1:20 PM84 °FPassing clouds.14 mph45%29.95 "HgN/A
12:50 PM84 °FPassing clouds.15 mph43%29.95 "HgN/A
12:20 PM84 °FPassing clouds.15 mph35%29.95 "HgN/A
11:50 AM86 °FPassing clouds.14 mph33%29.95 "HgN/A
11:20 AM84 °FPassing clouds.13 mph37%29.95 "HgN/A
10:50 AM84 °FSunny.9 mph37%29.95 "Hg10 mi
10:20 AM84 °FPassing clouds.7 mph40%29.98 "HgN/A
9:50 AM82 °FPassing clouds.8 mph35%29.98 "HgN/A
9:20 AM82 °FPassing clouds.8 mph32%29.95 "HgN/A
8:50 AM79 °FPassing clouds.7 mph39%29.95 "HgN/A
8:20 AM77 °FPassing clouds.8 mph42%29.95 "HgN/A
Weather by CustomWeather, © 2016

See weather overviewHow to use our weather pages